Regional Weather Roundup
Issued by NWS Wakefield, VA

Home | Current Version | Previous Version | Text Only | Print | Product List | Glossary Off
Versions: 1 2 3 4 5 6 7 8 9 10 11 12 13 14 15 16 17 18 19 20 21 22 23 24 25 26 27 28 29 30 31 32 33 34 35 36 37 38 39 40 41 42 43 44 45 46 47 48 49 50

000
ASUS41 KAKQ 131815
RWRAKQ

REGIONAL WEATHER ROUNDUP
NATIONAL WEATHER SERVICE WAKEFIELD VA
100 PM EST SAT FEB 13 2016

Note: "fair" indicates few or no clouds below 12,000 feet with no
significant weather and/or obstructions to visibility. * = Denotes
station may not report precipitation (e.g., rain,snow,etc.),
thunder or fog.

VAZ042-051-052>054-056-131900-
NORTHERN VIRGINIA

CITY           SKY/WX    TMP DP  RH WIND       PRES   REMARKS
WASH NATIONAL  PTSUNNY   21  -4  33 W18G30    30.29F WCI   6
DULLES         PTSUNNY   20  -3  36 NW24G31   30.27F WCI   3
FORT BELVOIR   PTSUNNY   21  -7  28 W15G26    30.29F WCI   8
QUANTICO       FAIR      25  -3  29 N18G29    30.31S WCI  11
FREDERICKSBRG* FAIR      26  -1  31 W23G30    30.26F WCI  11
STAFFORD*      FAIR      25  -4  27 NW17G29   30.31F WCI  12
WARRENTON      PTSUNNY   26   3  36 NW14      30.27S WCI  14
CULPEPER*      PTSUNNY   23  -4  30 W21       30.29S WCI   8
MANASSAS*      MOSUNNY   23   0  36 NW18G35   30.30F WCI   9
LEESBURG*      PTSUNNY   23   3  42 NW28G36   30.28F WCI   6
WINCHESTER     CLOUDY    19  -4  35 W21G32    30.27R WCI   3
FRONT ROYAL*   FAIR      19  -4  35 NW16G24   30.25F WCI   5
LURAY*         FAIR      19  -6  32 NW18G26   30.26S WCI   4
$$

VAZ048-049-060>072-079>083-131900-
CENTRAL AND SOUTH CENTRAL VIRGINIA

CITY           SKY/WX    TMP DP  RH WIND       PRES   REMARKS
RICHMOND       PTSUNNY   27  -2  28 NW17G28   30.26F WCI  14
CHESTERFIELD*  FAIR      30  -2  24 W13G21    30.27S WCI  20
PETERSBURG*    FAIR      31 -19  11 W8G25     30.27F
HANOVER        PTSUNNY   28  -2  27 W18G25    30.27F WCI  15
TAPPAHANNOCK*  PTSUNNY   26   2  34 NE9G18    30.26R
QUINTON*       FAIR      29  -2  26 NW18G24   30.25F WCI  17
CHARLOTTSVILLE FAIR      24  -8  24 NW12G24   30.26F WCI  13
GORDONSVILLE*  FAIR      26  -4  27 W10G22    30.26S WCI  15
ORANGE*        FAIR      27   0  31 W10G21    30.28R WCI  17
LOUISA*        FAIR      25  -4  28 W14G22    30.24F WCI  13
BUMPASS*       FAIR      27  -5  25 NW12G21   30.25F WCI  16
FARMVILLE*     FAIR      30  -8  19 NW14      30.26F WCI  19
CREWE*         FAIR      30  -2  25 W20G30    30.26S WCI  17
FORT PICKETT*  CLOUDY    27  -6  23 W12G17    30.26F WCI  17
CHASE CITY*    FAIR      28  -8  20 NW13G24   30.28F WCI  17
CLARKSVILLE*   FAIR      30  -2  24 W13G23    30.29F WCI  20
SOUTH HILL*    FAIR      29  -4  23 NW6G20    30.33F
LAWRENCEVILLE* FAIR      31  -2  24 NW10G25   30.26F WCI  22
EMPORIA*       FAIR      30  -2  24 W13G23    30.28F WCI  20
$$

VAZ088>098-131900-
SOUTHEAST VIRGINIA

CITY           SKY/WX    TMP DP  RH WIND       PRES   REMARKS
NORFOLK        FAIR      30  -1  26 NW16G24   30.23F WCI  19
VIRGINIA BEACH FAIR      33   8  35 W16G29    30.22F WCI  23
NORFOLK NAVAL  FAIR      32   1  26 NW23G31   30.25F WCI  19
WEST POINT*    PTSUNNY   29  -5  23 NW13G26   30.27S WCI  18
SALUDA*        MOCLDY    27   6  41 NW12G24   30.23F WCI  16
NEWPORT NEWS   FAIR      30   2  30 NW15G22   30.24F WCI  19
LANGLEY AFB    PTSUNNY   30   4  32 W18G25    30.22F WCI  18
FORT EUSTIS    FAIR      31   2  29 NW18G26   30.22F WCI  19
WILLIAMSBURG*  FAIR      36   3  25 NW17G28   30.25S
HR EXEC AP*    FAIR      32   5  32 W8G22     30.25F
FRANKLIN*      FAIR      31  -4  21 W17G29    30.27S WCI  20
US460-WAKEFLD  FAIR      31  -3  23 VRB7G17   30.26F
$$

VAZ020-022-025-037-045-131900-
WEST CENTRAL AND SOUTHWEST VIRGINIA

CITY           SKY/WX    TMP DP  RH WIND       PRES   REMARKS
STAUNTON*      FAIR      25  -7  24 NW20G29   30.24F WCI  11
WAYNESBORO*    FAIR      21 -13  22 NW15G28   30.19F WCI   7
HOT SPRINGS VA CLOUDY     8  -6  54 W22G29    29.99F WCI -13
LYNCHBURG      FAIR      25  -4  28 NW13G22   30.28F WCI  14
DANVILLE       FAIR      30  -2  25 NW15G24   30.31F WCI  19
SOUTH BOSTON*  FAIR      29  -6  21 NW15G25   30.30F WCI  18
MARTINSVILLE   FAIR      25  -4  28 NW16G26   30.33S WCI  12
ROANOKE        FAIR      22  -4  32 NW26G36   30.30F WCI   5
BLACKSBURG     FAIR      19   2  49 NW23      30.25F WCI   1
DUBLIN*        FAIR      19   0  42 NW20G31   30.25F WCI   4
MARION*        PTSUNNY   16   0  49 W20G32    30.24F WCI   0
HILLSVILLE*    FAIR      16  -1  47 NW18G29   30.17F WCI  -1
RICHLANDS*     MOCLDY    15  -3  46 NW10G20   30.26F HAZE    WCI   2
WISE*          PTSUNNY   19  -2  38 NW9G17    30.29F
ABINGDON*      PTSUNNY   20  -2  37 N15       30.32F WCI   7
$$

MDZ021>025-VAZ099-100-131900-
SOUTHERN MARYLAND AND THE DELMARVA PENINSULA

CITY           SKY/WX    TMP DP  RH WIND       PRES   REMARKS
PATUXENT RIVER MOSUNNY   25  -1  32 NW24G36   30.24S WCI   9
BAY BRIDGE APT   N/A     23   0  36 NW22G30   30.24F WCI   8
LEONARDTOWN    MOSUNNY   25  -2  30 NW13G23   30.26R WCI  13
DOVER          SUNNY     23  -1  34 W26G36    30.16S WCI   6
GEORGETOWN     FLURRIES  23  -4  30 W14G31    30.17F WCI  11
EASTON         MOSUNNY   25   0  33 NW22G29   30.26S WCI  10
CAMBRIDGE      MOSUNNY   23  -4  30 NW21G26   30.23R WCI   8
SALISBURY      SUNNY     25  -2  31 W21G35    30.19S WCI  11
OCEAN CITY     MOSUNNY   25   0  33 NW17G31   30.17R WCI  12
WALLOPS ISLAND FAIR      26   1  34 W26G36    30.19S WCI  10
ACCOMACK*      FAIR      28   1  31 NW24G40   30.22F WCI  14
$$

NCZ012>017-030>032-131900-
NORTH CENTRAL AND EASTERN NORTH CAROLINA

CITY           SKY/WX    TMP DP  RH WIND       PRES   REMARKS
ROANOKE RAPIDS FAIR      32   1  27 W10       30.28F WCI  24
RALEIGH        MOSUNNY   32   0  25 NW9G21    30.31F
ELIZABETH CITY SUNNY     31   7  36 NW16G30   30.24F WCI  20
AHOSKIE*       SUNNY     31  -2  24 NW7G18    30.27F
EDENTON*       SUNNY     35  10  35 NW17      30.25S WCI  24
CURRITUCK*     NOT AVBL
KILL DEVIL HLS NOT AVBL
MANTEO         NOT AVBL
CAPE HATTERAS  MOSUNNY   33  14  45 NW15G22   30.23F WCI  23
TARBORO*       FAIR      34   2  26 W13G18    30.29F WCI  25
GOLDSBORO      SUNNY     34   7  32 NW15G26   30.26F WCI  24
WASHINGTON     SUNNY     32   7  35 NW15G22   30.26F WCI  22
GREENVILLE     SUNNY     32   5  32 NW14G21   30.29S WCI  22
NEW BERN       SUNNY     34   9  35 NW18G25   30.27F WCI  23
WILMINGTON     SUNNY     41  16  36 NW18G28   30.26F
$$

VAZ048-131900-
ELSEWHERE

CITY           SKY/WX    TMP DP  RH WIND       PRES   REMARKS
HARRISBURG PA  PTSUNNY   16   0  49 NW28G36   30.21S WCI  -4
BALTIMORE      PTSUNNY   22  -5  30 NW16G31   30.25R WCI   8
ANNAPOLIS      PTSUNNY   22   2  42 NW12G28   30.25S WCI  10
ANDREWS AFB    FAIR      21  -3  34 NW25G35   30.24S WCI   4
PHILADELPHIA   PTSUNNY   22  -6  29 W29G37    30.17R WCI   4
HENDERSON NC   SUNNY     30  -6  20 NW16G25   30.29F WCI  19
GREENSBORO     MOSUNNY   30  -2  25 NW17G26   30.29F WCI  18
ROCKY MOUNT    SUNNY     33   4  29 NW17G23   30.30F WCI  22
$$

VAZ100-131900-
MARINE

STATION/POSITION TIME  TEMP    WIND        PRES    WAVE   SWELL
                       AIR SEA DIR/SP/G            HT/PER HT/PER
                 (UTC) (F)     (DEG/KT/KT) (MB)    (FT/S) (FT/S)
BRANDYWINE LGT   1700   22     320/ 24/ 38 1020.8S
CAPE MAY NJ      1700   23 36  310/ 24/ 30 1020.5F
LEWES DE         1700   24 37  300/ 28/ 32 1021.2R
15NM E FENWICK I 1750   25 43              1020.3R   6/ 6
OCEAN-CITY-INLET 1700   25 40  320/ 20/ 24 1020.5F
WACHAPREAGUE VA  1700   27 36  280/  9/ 16 1023.1R
THOMAS POINT MD  1800   19 36  310/ 24/ 29 1024.4F
GOOSES REEF MD   1800   23 37  310/ 21/ 27 1025.1S   3/ 4
COVE POINT MD    1700   21     330/ 17/ 26 1024.8R
SOLOMONS ISLAND  1700   23 38  320/ 14/ 22   N/A
BISHOPS HEAD MD  1700   23 30  310/ 19/ 29 1023.0R
PINEY POINT MD   1700          330/ 28/ 34   N/A
POTOMAC MD       1800   24 38  320/ 25/ 29 1023.1R   3/ 4
CAMBRIDGE MD     1700   22 35  290/ 19/ 28 1023.2R
LEWISETTA VA     1700   24 36  340/ 14/ 18 1024.1F
RAPPAHANNOCK LGT 1700          320/ 25/ 29 1023.7R
STINGRAY PT      1800   27 39  320/ 19/ 25 1023.8F   2/ 3
YORK RVR RNG VA  1700   27     310/ 21/ 26 1023.4F
YORKTOWN VA      1700   27 40  330/ 19/ 25 1024.0F
JAMESTOWN VA     1800   27 40  310/ 16/ 21   N/A     1/ 2
DOMINION TERM VA 1700   28     320/ 21/ 28 1023.9F
KIPTOPEKE VA     1700      37  330/ 16/ 25   N/A
CHES BAY BRIDGE  1700   27 40  290/ 16/ 21 1023.8S
CAPE HENRY VA    1700   26     310/ 19/ 26   N/A
CHESAPEAKE LGHT  1700   27     320/ 24/ 28 1024.2R
WILLOUBY STN VA  1700   27     300/ 17/ 21 1025.0R
CAPE HENRY BUOY  1728      43                N/A     5/ 5
1ST LANDING BUOY 1800      40                N/A     3/ 3
CAPE CHARLES BUO 1726      42                N/A     5/ 4   2/11
OFFSHORE WE BUOY 1721      45                N/A     7/ 6   2/11
64NM E OF VA BCH 1750   30 48  320/ 27/ 35 1021.5S  10/ 8
DUCK PIER NC     1700   29     320/ 22/ 27 1022.7R
44100 DUCK FRF   1724      46                N/A     8/ 7   2/11
44056 DUCK FRF   1711      42                N/A     5/ 7
OREGON INLET NC  1700   30 37  310/ 18/ 23 1023.6R
HATTERAS NC      1700   31 42  340/ 16/ 21 1023.6R
DIAMOND SHLS NC  1750   34 71  350/ 17/ 25 1023.2S   5/ 8   2/11
$$C1F1C2F2C3F3C4F4C5F5C6F6C7F7C8M1C9!


USA.gov is the U.S. government's official web portal to all federal, state and local government web resources and services.